Location: Atbuku
(36.4936°N, 30.4362°E)
Time: 12:06:35
(UTC+00:00)

SL-24 R/B - RUBIN 2 - Visible Passes

Search period start: 15 March 2026 00:00
Search period end: 25 March 2026 00:00
Orbit: 603 x 984 km, 64.6° (Epoch: 14 March)

Date Brightness Start Highest point End Pass type
(mag) Time Alt. Az. Time Alt. Az. Time Alt. Az.
15 Mar 6.3 01:02:48 17° ENE 01:02:48 17° ENE 01:04:45 10° E visible
15 Mar 3.9 02:43:41 31° WNW 02:45:21 44° WSW 02:49:53 10° S visible
15 Mar 5.1 17:21:21 10° SW 17:26:08 41° NW 17:30:31 10° NNE visible
16 Mar 4.0 02:16:19 49° S 02:16:19 49° S 02:20:02 10° SSE visible
16 Mar 4.5 16:51:01 10° SW 16:56:02 57° WNW 17:00:36 10° NNE visible
17 Mar 5.9 01:49:04 16° SSE 01:49:04 16° SSE 01:50:02 10° SSE visible
17 Mar 7.0 18:09:47 10° NW 18:10:14 10° NW 18:10:40 10° NW visible
18 Mar 6.6 17:37:33 10° WNW 17:39:57 14° NW 17:42:16 10° NNW visible
19 Mar 6.4 17:06:24 10° W 17:09:42 18° NW 17:12:52 10° N visible
20 Mar 6.2 16:35:34 10° WSW 16:39:30 23° NW 16:43:13 10° N visible
